| time (UTC) | temp F | wind direction | speed knots | gust knots | rain 1hr in | rain 24hr in | rain mn in | humidity % | barometer mb |
| 20260507024916 | 51 | 0.0 | 0.0 | 0.00 | 0.00 | 0.00 | 14.2 | ||
| 20260507024410 | 51 | 0.0 | 0.0 | 0.00 | 0.00 | 0.00 | 14.1 | ||
| 20260507023906 | 50 | 0.0 | 0.0 | 0.00 | 0.00 | 0.00 | 14.1 | ||
| 20260507023403 | 50 | 0.0 | 0.0 | 0.00 | 0.00 | 0.00 | 14.1 | ||
| 20260507013248 | 49 | 0.0 | 0.0 | 0.00 | 0.00 | 0.00 | 14.0 | ||
| 20260507012740 | 49 | 0.0 | 0.0 | 0.00 | 0.00 | 0.00 | 14.0 | ||
| 20260507012233 | 49 | 0.0 | 0.0 | 0.00 | 0.00 | 0.00 | 14.0 | ||
| 20260507011723 | 50 | 0.0 | 0.0 | 0.00 | 0.00 | 0.00 | 14.0 | ||
| 20260507001151 | 51 | 0.0 | 0.0 | 0.00 | 0.00 | 0.00 | 14.0 | ||
| 20260507000644 | 51 | 0.0 | 0.0 | 0.00 | 0.00 | 0.00 | 13.9 | ||
| 20260507000137 | 51 | 0.0 | 0.0 | 0.00 | 0.00 | 0.00 | 14.0 | ||
| 20260506235630 | 51 | 0.0 | 0.0 | 0.00 | 0.00 | 0.00 | 14.1 | ||
| 20260506235123 | 51 | 0.0 | 0.0 | 0.00 | 0.00 | 0.00 | 14.3 | ||
| 20260506224940 | 52 | 0.0 | 0.0 | 0.00 | 0.00 | 0.00 | 14.3 | ||
| 20260506224430 | 52 | 0.0 | 0.0 | 0.00 | 0.00 | 0.00 | 14.4 | ||
| 20260506223923 | 52 | 0.0 | 0.0 | 0.00 | 0.00 | 0.00 | 14.5 | ||
| 20260506223413 | 52 | 0.0 | 0.0 | 0.00 | 0.00 | 0.00 | 14.4 | ||
| 20260506213227 | 54 | 0.0 | 0.0 | 0.00 | 0.00 | 0.00 | 14.4 | ||
| 20260506212722 | 54 | 0.0 | 0.0 | 0.00 | 0.00 | 0.00 | 14.5 | ||
| 20260506212214 | 54 | 0.0 | 0.0 | 0.00 | 0.00 | 0.00 | 14.6 | ||
| 20260506211705 | 55 | 0.0 | 0.0 | 0.00 | 0.00 | 0.00 | 14.7 | ||
| 20260506201145 | 56 | 0.0 | 0.0 | 0.00 | 0.00 | 0.00 | 14.7 | ||
| 20260506200133 | 57 | 0.0 | 0.0 | 0.00 | 0.00 | 0.00 | 14.6 | ||
| 20260506195626 | 57 | 0.0 | 0.0 | 0.00 | 0.00 | 0.00 | 14.6 | ||
| 20260506195117 | 57 | 0.0 | 0.0 | 0.00 | 0.00 | 0.00 | 14.7 | ||
| 20260506184932 | 60 | 0.0 | 0.0 | 0.00 | 0.00 | 0.00 | 14.5 | ||
| 20260506184426 | 60 | 0.0 | 0.0 | 0.00 | 0.00 | 0.00 | 14.3 | ||
| 20260506183919 | 60 | 0.0 | 0.0 | 0.00 | 0.00 | 0.00 | 14.3 | ||
| 20260506183413 | 60 | 0.0 | 0.0 | 0.00 | 0.00 | 0.00 | 14.3 | ||
| 20260506173241 | 64 | 0.0 | 0.0 | 0.00 | 0.00 | 0.00 | 14.3 | ||
| 20260506172735 | 64 | 0.0 | 0.0 | 0.00 | 0.00 | 0.00 | 14.2 | ||
| 20260506172228 | 65 | 0.0 | 0.0 | 0.00 | 0.00 | 0.00 | 14.2 | ||
| 20260506171722 | 64 | 0.0 | 0.0 | 0.00 | 0.00 | 0.00 | 14.2 | ||
| 20260506161140 | 73 | 0.0 | 0.0 | 0.00 | 0.00 | 0.00 | 12.2 | ||
| 20260506160633 | 73 | 0.0 | 0.0 | 0.00 | 0.00 | 0.00 | 12.1 | ||
| 20260506160126 | 74 | 0.0 | 0.0 | 0.00 | 0.00 | 0.00 | 12.1 | ||
| 20260506155619 | 73 | 0.0 | 0.0 | 0.00 | 0.00 | 0.00 | 11.9 | ||
| 20260506155112 | 74 | 0.0 | 0.0 | 0.00 | 0.00 | 0.00 | 12.0 | ||
| 20260506144937 | 77 | 0.0 | 0.0 | 0.00 | 0.00 | 0.00 | 10.9 | ||
| 20260506144434 | 76 | 0.0 | 0.0 | 0.00 | 0.00 | 0.00 | 11.4 | ||
| 20260506143922 | 76 | 0.0 | 0.0 | 0.00 | 0.00 | 0.00 | 11.1 | ||
| 20260506143416 | 76 | 0.0 | 0.0 | 0.00 | 0.00 | 0.00 | 10.9 | ||
| 20260506133243 | 78 | 0.0 | 0.0 | 0.00 | 0.00 | 0.00 | 10.7 | ||
| 20260506132734 | 78 | 0.0 | 0.0 | 0.00 | 0.00 | 0.00 | 10.3 | ||
| 20260506132228 | 77 | 0.0 | 0.0 | 0.00 | 0.00 | 0.00 | 10.3 | ||
| 20260506131721 | 77 | 0.0 | 0.0 | 0.00 | 0.00 | 0.00 | 10.6 | ||
| 20260506121541 | 80 | 0.0 | 0.0 | 0.00 | 0.00 | 0.00 | 10.2 | ||
| 20260506121032 | 79 | 0.0 | 0.0 | 0.00 | 0.00 | 0.00 | 10.1 | ||
| 20260506120525 | 79 | 0.0 | 0.0 | 0.00 | 0.00 | 0.00 | 9.8 | ||
| 20260506120024 | 79 | 0.0 | 0.0 | 0.00 | 0.00 | 0.00 | 11.0 | ||
| 20260506115524 | 77 | 0.0 | 0.0 | 0.00 | 0.00 | 0.00 | 11.4 | ||
| 20260506104944 | 76 | 0.0 | 0.0 | 0.00 | 0.00 | 0.00 | 11.9 | ||
| 20260506104437 | 77 | 0.0 | 0.0 | 0.00 | 0.00 | 0.00 | 11.9 | ||
| 20260506103928 | 77 | 0.0 | 0.0 | 0.00 | 0.00 | 0.00 | 11.8 | ||
| 20260506103420 | 77 | 0.0 | 0.0 | 0.00 | 0.00 | 0.00 | 12.8 | ||
| 20260506093229 | 75 | 0.0 | 0.0 | 0.00 | 0.00 | 0.00 | 12.0 | ||
| 20260506092722 | 75 | 0.0 | 0.0 | 0.00 | 0.00 | 0.00 | 12.6 | ||
| 20260506092216 | 75 | 0.0 | 0.0 | 0.00 | 0.00 | 0.00 | 12.7 | ||
| 20260506091706 | 75 | 0.0 | 0.0 | 0.00 | 0.00 | 0.00 | 12.6 | ||
| 20260506081145 | 74 | 0.0 | 0.0 | 0.00 | 0.00 | 0.00 | 12.5 | ||
| 20260506080640 | 75 | 0.0 | 0.0 | 0.00 | 0.00 | 0.00 | 12.5 | ||
| 20260506080134 | 75 | 0.0 | 0.0 | 0.00 | 0.00 | 0.00 | 12.4 | ||
| 20260506041646 | 64 | 0.0 | 0.0 | 0.00 | 0.00 | 0.00 | 12.4 | ||
| 20260506041139 | 63 | 0.0 | 0.0 | 0.00 | 0.00 | 0.00 | 12.7 | ||
| 20260506040632 | 62 | 0.0 | 0.0 | 0.00 | 0.00 | 0.00 | 12.8 | ||
| 20260506040126 | 62 | 0.0 | 0.0 | 0.00 | 0.00 | 0.00 | 12.6 | ||
| 20260506035620 | 61 | 0.0 | 0.0 | 0.00 | 0.00 | 0.00 | 12.8 | ||
| 20260506035114 | 60 | 0.0 | 0.0 | 0.00 | 0.00 | 0.00 | 12.9 |